Terminal Aerodrome Forecast
Issued by NWS

Home | Current Version | Previous Version | Text Only | Print | Product List | Glossary On
Versions: 1 2 3 4 5 6 7 8 9 10 11 12 13 14 15 16 17 18 19 20 21 22 23 24 25 26
000
FTAK31 PAFA 190520
TAFAOR
TAF
PAOR 190520Z 1906/2006 VRB03KT P6SM FEW050 SCT100
     FM191500 00000KT P6SM BKN100=

USA.gov is the U.S. government's official web portal to all federal, state and local government web resources and services.